GLOBALSTAR M056 [P]

Last updated on Wed May 04 2016 15:39:28 GMT+0000 (Coordinated Universal Time)

1 25945U 99058C 16125.53463287 -.00000114 00000-0 -31195-3 0 9999 2 25945 51.9970 304.3783 0002030 70.4821 37.2247 12.04706468761235

Satellite not in orbit

GLOBALSTAR M056 [P]